Flag for Sweden Weather past 2 weeks in Malmö, Sweden

Now
32 °F

Mostly cloudy.


Feels Like: 24 °F
Forecast: 28 / 33 °F
Wind: 10 mph from West

Location: Malmo / Sturup

Current Time: Feb 1, 2015 at 9:35:01 PM

Latest Report: Feb 1, 2015 at 9:20 PM


Visibility: N/A

Pressure: 29.09 "Hg

Humidity: 87%

Dew point: 28 °F

Location of MalmöLocation

Historic Weather in Malmö — Graph

°F

Malmö temperature yesterday

Maximum temperature yesterday: 34 °F (at 10:50 AM)
Minimum temperature yesterday: 32 °F (at 12:20 AM)
Average temperature yesterday: 33 °F

Past Weeks' High & Low Weather Summary

 TemperatureHumidityPressure
High41 °F (Jan 22, 12:20 PM)100% (Jan 19, 12:20 AM)30.27 "Hg (Jan 19, 12:20 AM)
Low23 °F (Jan 25, 5:20 AM)70% (Feb 1, 11:20 AM)28.74 "Hg (Jan 30, 2:20 PM)
Average33 °F94%29.67 "Hg
* Reported Jan 17 8:20 PM — Feb 1 8:20 PM, Malmö, Weather by CustomWeather, © 2014

Note: Actual official high and low records may vary slightly from our data, if they occured in-between our weather recording intervals... More about our weather records

Advertising

Malmö weather history for previous 24 hours

 ConditionsComfort  
Time TempWeatherWind HumidityBarometerVisibility
8:20 PM
Feb 1
34 °FLight snow. Mostly cloudy.9 mph81%29.06 "HgN/A
7:50 PM34 °FLight snow. Overcast.10 mph87%29.06 "HgN/A
7:20 PM34 °FOvercast.10 mph87%29.06 "HgN/A
6:50 PM34 °FOvercast.9 mph93%29.06 "HgN/A
6:20 PM34 °FLight snow. Overcast.10 mph93%29.06 "HgN/A
5:50 PM34 °FPartly cloudy.13 mph93%29.06 "HgN/A
5:20 PM34 °FMostly cloudy.14 mph93%29.03 "HgN/A
4:50 PM34 °FPassing clouds.14 mph87%29.03 "HgN/A
4:20 PM34 °FBroken clouds.15 mph87%29.03 "HgN/A
3:50 PM36 °FScattered clouds.16 mph81%29.03 "HgN/A
3:20 PM34 °FSnow flurries. Broken clouds.15 mph93%29.03 "HgN/A
2:50 PM34 °FLight snow. Scattered clouds.14 mph87%29.00 "HgN/A
2:20 PM36 °FBroken clouds.17 mph75%29.00 "HgN/A
1:50 PM36 °FLight rain. Broken clouds.17 mph75%29.00 "HgN/A
1:20 PM36 °FBroken clouds.18 mph75%29.00 "HgN/A
12:50 PM36 °FBroken clouds.17 mph70%29.00 "HgN/A
12:20 PM36 °FPartly sunny.20 mph75%29.00 "HgN/A
11:50 AM36 °FMore clouds than sun.18 mph70%29.00 "HgN/A
11:20 AM36 °FPartly sunny.18 mph70%29.00 "HgN/A
10:50 AM36 °FBroken clouds.17 mph75%28.97 "HgN/A
10:20 AM34 °FBroken clouds.18 mph81%28.97 "HgN/A
9:50 AM34 °FBroken clouds.17 mph81%28.97 "HgN/A
9:20 AM34 °FLight snow. Broken clouds.15 mph87%28.94 "HgN/A
8:50 AM34 °FPartly sunny.15 mph87%28.94 "HgN/A
8:20 AM34 °FPartly sunny.17 mph87%28.94 "HgN/A
7:50 AM34 °FPassing clouds.15 mph87%28.94 "HgN/A
7:20 AM34 °FPassing clouds.15 mph87%28.91 "HgN/A
6:50 AM34 °FPassing clouds.15 mph87%28.91 "HgN/A
6:20 AM34 °FLight snow. Mostly cloudy.14 mph87%28.91 "HgN/A
5:50 AM34 °FMostly cloudy.15 mph93%28.91 "HgN/A
5:20 AM34 °FLight snow. Mostly cloudy.14 mph93%28.88 "Hg5 mi
4:20 AM32 °FLight snow. Partly cloudy.15 mph100%28.88 "Hg6 mi
3:50 AM32 °FPartly cloudy.15 mph100%28.88 "HgN/A
2:50 AM32 °FLight snow. Partly cloudy.15 mph93%28.88 "Hg1 mi
2:20 AM34 °FMostly cloudy.14 mph93%28.88 "HgN/A
1:50 AM34 °FMostly cloudy.15 mph93%28.88 "HgN/A
1:20 AM32 °FLight snow. Overcast.13 mph100%28.88 "HgN/A
12:50 AM34 °FMostly cloudy.14 mph93%28.88 "HgN/A
12:20 AM34 °FMostly cloudy.13 mph93%28.88 "HgN/A
11:50 PM
Jan 31
34 °FOvercast.14 mph93%28.85 "HgN/A
11:20 PM34 °FPassing clouds.12 mph93%28.85 "HgN/A
10:50 PM34 °FPartly cloudy.12 mph87%28.85 "HgN/A
10:20 PM34 °FPassing clouds.12 mph87%28.85 "HgN/A
9:50 PM34 °FPartly cloudy.12 mph93%28.85 "HgN/A
9:20 PM34 °FLight rain. Passing clouds.10 mph93%28.85 "HgN/A
Weather by CustomWeather, © 2014

See weather overviewHow to use our weather pages